timestamp,wind_dir_avg,wind_spd_max_dir,wind_spd_avg,wind_spd_gust,battery_voltage,lat,long
2018-10-29 00:00:00+00:00,114.0,130.0,3.44,6.06,,47.59359,-54.27349
2018-10-29 00:10:00+00:00,130.0,118.0,3.81,6.87,,47.59359,-54.27349
2018-10-29 00:20:00+00:00,138.0,137.0,5.54,6.75,,47.59359,-54.27349
2018-10-29 00:30:00+00:00,130.0,138.0,3.59,4.91,,47.59359,-54.27349
2018-10-29 00:40:00+00:00,130.0,127.0,3.22,3.95,,47.59359,-54.27349
2018-10-29 00:50:00+00:00,126.0,133.0,1.42,2.19,,47.59359,-54.27349
2018-10-29 01:00:00+00:00,66.0,20.0,0.62,1.61,,47.59359,-54.27349
2018-10-29 01:10:00+00:00,337.0,246.0,0.18,0.9,,47.59359,-54.27349
2018-10-29 01:20:00+00:00,85.0,117.0,0.78,1.39,,47.59359,-54.27349
2018-10-29 01:30:00+00:00,189.0,205.0,1.15,2.03,,47.59359,-54.27349
2018-10-29 01:40:00+00:00,332.0,300.0,1.18,1.68,,47.59359,-54.27349
2018-10-29 01:50:00+00:00,140.0,152.0,1.8,3.14,,47.59359,-54.27349
2018-10-29 02:00:00+00:00,67.0,82.0,1.91,2.89,,47.59359,-54.27349
2018-10-29 02:10:00+00:00,326.0,313.0,0.62,1.07,,47.59359,-54.27349
2018-10-29 02:20:00+00:00,329.0,325.0,0.99,1.64,,47.59359,-54.27349
2018-10-29 02:30:00+00:00,346.0,333.0,0.96,1.36,,47.59359,-54.27349
2018-10-29 02:40:00+00:00,335.0,329.0,1.62,1.89,,47.59359,-54.27349
2018-10-29 02:50:00+00:00,286.0,302.0,1.14,1.53,,47.59359,-54.27349
2018-10-29 03:00:00+00:00,335.0,343.0,1.76,2.33,,47.59359,-54.27349
2018-10-29 03:10:00+00:00,103.0,75.0,3.02,5.15,,47.59359,-54.27349
2018-10-29 03:20:00+00:00,282.0,278.0,2.14,3.41,,47.59359,-54.27349
2018-10-29 03:30:00+00:00,185.0,184.0,6.9,8.19,,47.59359,-54.27349
2018-10-29 03:40:00+00:00,187.0,189.0,6.21,8.84,,47.59359,-54.27349
2018-10-29 03:50:00+00:00,192.0,191.0,4.48,5.46,,47.59359,-54.27349
2018-10-29 04:00:00+00:00,205.0,193.0,2.4,3.62,,47.59359,-54.27349
2018-10-29 04:10:00+00:00,182.0,196.0,5.4,7.27,,47.59359,-54.27349
2018-10-29 04:20:00+00:00,174.0,176.0,7.94,8.97,,47.59359,-54.27349
2018-10-29 04:30:00+00:00,171.0,174.0,10.01,11.3,,47.59359,-54.27349
2018-10-29 04:40:00+00:00,172.0,174.0,9.96,12.04,,47.59359,-54.27349
2018-10-29 04:50:00+00:00,173.0,165.0,7.29,8.86,,47.59359,-54.27349
2018-10-29 05:00:00+00:00,187.0,188.0,6.89,8.79,,47.59359,-54.27349
2018-10-29 05:10:00+00:00,220.0,228.0,4.58,5.55,,47.59359,-54.27349
2018-10-29 05:20:00+00:00,227.0,227.0,2.97,3.85,,47.59359,-54.27349
2018-10-29 05:30:00+00:00,217.0,218.0,5.34,6.26,,47.59359,-54.27349
2018-10-29 05:40:00+00:00,218.0,218.0,4.05,5.29,,47.59359,-54.27349
2018-10-29 05:50:00+00:00,257.0,264.0,2.63,4.35,,47.59359,-54.27349
2018-10-29 06:00:00+00:00,216.0,213.0,5.25,7.2,,47.59359,-54.27349
2018-10-29 06:10:00+00:00,224.0,230.0,3.59,4.56,,47.59359,-54.27349
2018-10-29 06:20:00+00:00,172.0,166.0,6.58,7.34,,47.59359,-54.27349
2018-10-29 06:30:00+00:00,167.0,173.0,7.21,8.18,,47.59359,-54.27349
2018-10-29 06:40:00+00:00,176.0,178.0,7.65,8.88,,47.59359,-54.27349
2018-10-29 06:50:00+00:00,172.0,171.0,8.8,10.26,,47.59359,-54.27349
2018-10-29 07:00:00+00:00,160.0,159.0,7.9,8.71,,47.59359,-54.27349
2018-10-29 07:10:00+00:00,160.0,157.0,2.0,2.38,,47.59359,-54.27349
2018-10-29 07:20:00+00:00,38.0,35.0,2.07,2.7,,47.59359,-54.27349
2018-10-29 07:30:00+00:00,170.0,201.0,1.68,2.78,,47.59359,-54.27349
2018-10-29 07:40:00+00:00,155.0,156.0,4.88,5.64,,47.59359,-54.27349
2018-10-29 07:50:00+00:00,185.0,183.0,4.08,5.31,,47.59359,-54.27349
2018-10-29 08:00:00+00:00,176.0,165.0,5.22,7.08,,47.59359,-54.27349
2018-10-29 08:10:00+00:00,212.0,210.0,6.32,7.73,,47.59359,-54.27349
2018-10-29 08:20:00+00:00,202.0,199.0,4.4,5.1,,47.59359,-54.27349
2018-10-29 08:30:00+00:00,220.0,222.0,2.43,2.97,,47.59359,-54.27349
2018-10-29 08:40:00+00:00,262.0,264.0,0.86,1.15,,47.59359,-54.27349
2018-10-29 08:50:00+00:00,321.0,318.0,1.99,2.54,,47.59359,-54.27349
2018-10-29 09:00:00+00:00,244.0,238.0,5.29,6.61,,47.59359,-54.27349
2018-10-29 09:10:00+00:00,292.0,293.0,4.79,6.16,,47.59359,-54.27349
2018-10-29 09:20:00+00:00,294.0,290.0,4.4,5.86,,47.59359,-54.27349
2018-10-29 09:30:00+00:00,272.0,272.0,7.11,7.94,,47.59359,-54.27349
2018-10-29 09:40:00+00:00,255.0,257.0,6.82,7.98,,47.59359,-54.27349
2018-10-29 09:50:00+00:00,243.0,228.0,7.54,10.39,,47.59359,-54.27349
2018-10-29 10:00:00+00:00,258.0,254.0,7.84,10.65,,47.59359,-54.27349
2018-10-29 10:10:00+00:00,259.0,258.0,9.63,10.9,,47.59359,-54.27349
2018-10-29 10:20:00+00:00,255.0,253.0,10.96,12.03,,47.59359,-54.27349
2018-10-29 10:30:00+00:00,247.0,254.0,13.28,15.31,,47.59359,-54.27349
2018-10-29 10:40:00+00:00,244.0,245.0,11.49,13.57,,47.59359,-54.27349
2018-10-29 10:50:00+00:00,242.0,238.0,11.56,13.23,,47.59359,-54.27349
2018-10-29 11:00:00+00:00,245.0,255.0,10.94,13.43,,47.59359,-54.27349
2018-10-29 11:10:00+00:00,244.0,249.0,11.33,12.78,,47.59359,-54.27349
2018-10-29 11:20:00+00:00,240.0,235.0,11.81,13.83,,47.59359,-54.27349
2018-10-29 11:30:00+00:00,239.0,236.0,10.86,12.69,,47.59359,-54.27349
2018-10-29 11:40:00+00:00,241.0,239.0,11.48,13.08,,47.59359,-54.27349
2018-10-29 11:50:00+00:00,241.0,241.0,12.05,14.7,,47.59359,-54.27349
2018-10-29 12:00:00+00:00,231.0,233.0,11.6,13.12,,47.59359,-54.27349
2018-10-29 12:10:00+00:00,234.0,230.0,11.02,13.39,,47.59359,-54.27349
2018-10-29 12:20:00+00:00,234.0,239.0,10.0,11.94,,47.59359,-54.27349
2018-10-29 12:30:00+00:00,233.0,231.0,10.86,12.68,,47.59359,-54.27349
2018-10-29 12:40:00+00:00,235.0,234.0,13.74,15.55,,47.59359,-54.27349
2018-10-29 12:50:00+00:00,236.0,239.0,12.33,13.99,,47.59359,-54.27349
2018-10-29 13:00:00+00:00,234.0,234.0,12.65,14.8,,47.59359,-54.27349
2018-10-29 13:10:00+00:00,232.0,234.0,13.39,16.4,,47.59359,-54.27349
2018-10-29 13:20:00+00:00,231.0,234.0,13.46,15.59,,47.59359,-54.27349
2018-10-29 13:30:00+00:00,238.0,239.0,11.9,14.46,,47.59359,-54.27349
2018-10-29 13:40:00+00:00,243.0,242.0,10.2,12.4,,47.59359,-54.27349
2018-10-29 13:50:00+00:00,244.0,242.0,7.48,8.19,,47.59359,-54.27349
2018-10-29 14:00:00+00:00,240.0,236.0,9.07,10.34,,47.59359,-54.27349
2018-10-29 14:10:00+00:00,229.0,228.0,11.22,12.48,,47.59359,-54.27349
2018-10-29 14:20:00+00:00,228.0,234.0,11.5,13.52,,47.59359,-54.27349
2018-10-29 14:30:00+00:00,230.0,233.0,10.52,12.46,,47.59359,-54.27349
2018-10-29 14:40:00+00:00,229.0,234.0,10.76,12.34,,47.59359,-54.27349
2018-10-29 14:50:00+00:00,233.0,229.0,10.35,12.2,,47.59359,-54.27349
2018-10-29 15:00:00+00:00,236.0,239.0,10.08,11.91,,47.59359,-54.27349
2018-10-29 15:10:00+00:00,236.0,240.0,10.21,11.49,,47.59359,-54.27349
2018-10-29 15:20:00+00:00,231.0,234.0,9.96,10.92,,47.59359,-54.27349
2018-10-29 15:30:00+00:00,218.0,219.0,10.63,12.08,,47.59359,-54.27349
2018-10-29 15:40:00+00:00,222.0,224.0,10.65,12.04,,47.59359,-54.27349
2018-10-29 15:50:00+00:00,222.0,224.0,10.57,12.74,,47.59359,-54.27349
2018-10-29 16:00:00+00:00,226.0,231.0,10.71,12.7,,47.59359,-54.27349
2018-10-29 16:10:00+00:00,231.0,229.0,9.73,11.11,,47.59359,-54.27349
2018-10-29 16:20:00+00:00,229.0,235.0,8.97,10.43,,47.59359,-54.27349
2018-10-29 16:30:00+00:00,231.0,228.0,9.48,11.03,,47.59359,-54.27349
2018-10-29 16:40:00+00:00,224.0,227.0,9.6,11.42,,47.59359,-54.27349
2018-10-29 16:50:00+00:00,225.0,225.0,9.85,10.81,,47.59359,-54.27349
2018-10-29 17:00:00+00:00,228.0,227.0,9.66,10.81,,47.59359,-54.27349
2018-10-29 17:10:00+00:00,230.0,240.0,9.21,10.84,,47.59359,-54.27349
2018-10-29 17:20:00+00:00,225.0,229.0,9.92,11.16,,47.59359,-54.27349
2018-10-29 17:30:00+00:00,227.0,232.0,10.2,11.62,,47.59359,-54.27349
2018-10-29 17:40:00+00:00,230.0,231.0,9.89,10.61,,47.59359,-54.27349
2018-10-29 17:50:00+00:00,231.0,230.0,8.24,9.54,,47.59359,-54.27349
2018-10-29 18:00:00+00:00,225.0,227.0,8.62,10.04,,47.59359,-54.27349
2018-10-29 18:10:00+00:00,222.0,222.0,9.39,10.34,,47.59359,-54.27349
2018-10-29 18:20:00+00:00,225.0,228.0,8.75,9.81,,47.59359,-54.27349
2018-10-29 18:30:00+00:00,224.0,222.0,7.87,8.89,,47.59359,-54.27349
2018-10-29 18:40:00+00:00,222.0,222.0,9.17,10.37,,47.59359,-54.27349
2018-10-29 18:50:00+00:00,222.0,224.0,9.49,10.44,,47.59359,-54.27349
2018-10-29 19:00:00+00:00,220.0,224.0,9.44,10.54,,47.59359,-54.27349
2018-10-29 19:10:00+00:00,223.0,223.0,9.09,9.82,,47.59359,-54.27349
2018-10-29 19:20:00+00:00,229.0,230.0,8.31,9.54,,47.59359,-54.27349
2018-10-29 19:30:00+00:00,222.0,222.0,7.45,8.13,,47.59359,-54.27349
2018-10-29 19:40:00+00:00,221.0,223.0,6.47,7.14,,47.59359,-54.27349
2018-10-29 19:50:00+00:00,217.0,218.0,6.48,7.13,,47.59359,-54.27349
2018-10-29 20:00:00+00:00,211.0,210.0,7.2,7.76,,47.59359,-54.27349
2018-10-29 20:10:00+00:00,212.0,213.0,8.46,9.1,,47.59359,-54.27349
2018-10-29 20:20:00+00:00,212.0,207.0,7.67,8.27,,47.59359,-54.27349
2018-10-29 20:30:00+00:00,212.0,214.0,7.84,8.5,,47.59359,-54.27349
2018-10-29 20:40:00+00:00,213.0,213.0,7.18,7.84,,47.59359,-54.27349
2018-10-29 20:50:00+00:00,215.0,216.0,6.66,7.58,,47.59359,-54.27349
2018-10-29 21:00:00+00:00,214.0,217.0,5.93,6.26,,47.59359,-54.27349
2018-10-29 21:10:00+00:00,224.0,226.0,5.77,6.42,,47.59359,-54.27349
2018-10-29 21:20:00+00:00,224.0,227.0,5.81,6.25,,47.59359,-54.27349
2018-10-29 21:30:00+00:00,228.0,231.0,5.47,6.11,,47.59359,-54.27349
2018-10-29 21:40:00+00:00,218.0,220.0,6.42,6.75,,47.59359,-54.27349
2018-10-29 21:50:00+00:00,220.0,221.0,6.18,6.57,,47.59359,-54.27349
2018-10-29 22:00:00+00:00,233.0,230.0,4.24,4.99,,47.59359,-54.27349
2018-10-29 22:10:00+00:00,230.0,232.0,5.22,6.02,,47.59359,-54.27349
2018-10-29 22:20:00+00:00,243.0,245.0,5.34,6.15,,47.59359,-54.27349
2018-10-29 22:30:00+00:00,257.0,258.0,3.86,4.39,,47.59359,-54.27349
2018-10-29 22:40:00+00:00,251.0,254.0,3.53,3.94,,47.59359,-54.27349
2018-10-29 22:50:00+00:00,224.0,221.0,2.31,2.71,,47.59359,-54.27349
2018-10-29 23:00:00+00:00,201.0,202.0,6.18,7.41,,47.59359,-54.27349
2018-10-29 23:10:00+00:00,212.0,210.0,4.69,5.47,,47.59359,-54.27349
2018-10-29 23:20:00+00:00,220.0,224.0,2.22,2.74,,47.59359,-54.27349
2018-10-29 23:30:00+00:00,217.0,221.0,3.67,4.07,,47.59359,-54.27349
2018-10-29 23:40:00+00:00,201.0,203.0,2.93,3.66,,47.59359,-54.27349
2018-10-29 23:50:00+00:00,207.0,206.0,5.74,6.24,,47.59359,-54.27349
